EW3662 Weather Reports


Display with metric or nautical units.
time (UTC)temp
F
wind
direction
speed
MPH
gust
MPH
rain 1hr
in
rain 24hr
in
rain mn
in
humidity
%
barometer
mb
20260503030252 56 0 0.0 0.0 0.00 0.00 0.00 24 1016.4
20260503025749 57 0 0.0 2.0 0.00 0.00 0.00 30 1016.4
20260503025250 58 0 0.0 2.0 0.00 0.00 0.00 24 1016.4
20260503024750 58 0 0.0 2.0 0.00 0.00 0.00 23 1016.2
20260503024251 59 0 0.0 0.0 0.00 0.00 0.00 23 1016.2
20260503023750 60 0 0.0 0.0 0.00 0.00 0.00 23 1016.4
20260503023522 61 0 0.0 0.0 0.00 0.00 0.00 21 1016.2
20260503022750 61 0 0.0 0.0 0.00 0.00 0.00 20 1016.1
20260503022249 62 0 0.0 0.0 0.00 0.00 0.00 19 1016.2
20260503021748 63 0 0.0 0.0 0.00 0.00 0.00 19 1016.2
20260503021247 64 0 0.0 4.0 0.00 0.00 0.00 19 1016.1
20260503020748 64 0 2.0 4.0 0.00 0.00 0.00 20 1016.0
20260503020247 65 0 3.0 4.0 0.00 0.00 0.00 18 1016.1
20260503015749 66 0 3.0 4.0 0.00 0.00 0.00 16 1016.0
20260503015252 67 0 3.0 5.0 0.00 0.00 0.00 16 1016.0
20260503015247 66 0 3.0 5.0 0.00 0.00 0.00 16 1016.0
20260503014247 68 0 3.0 6.0 0.00 0.00 0.00 14 1016.0
20260503013747 68 0 3.0 7.0 0.00 0.00 0.00 14 1016.0
20260503013245 69 0 3.0 7.0 0.00 0.00 0.00 14 1016.0
20260503012744 70 0 4.0 8.0 0.00 0.00 0.00 13 1015.9
20260503012245 70 0 5.0 8.0 0.00 0.00 0.00 12 1015.9
20260503011745 70 0 4.0 9.0 0.00 0.00 0.00 12 1015.9
20260503011245 71 0 4.0 9.0 0.00 0.00 0.00 13 1016.0
20260503010747 71 0 5.0 8.0 0.00 0.00 0.00 12 1015.9
20260503010634 72 0 4.0 9.0 0.00 0.00 0.00 11 1015.9
20260503010522 72 0 4.0 8.0 0.00 0.00 0.00 11 1015.9
20260503005247 72 0 5.0 10.0 0.00 0.00 0.00 12 1016.0
20260503004746 72 0 5.0 10.0 0.00 0.00 0.00 11 1016.0
20260503004243 72 0 4.0 10.0 0.00 0.00 0.00 12 1016.0
20260503004015 73 0 5.0 9.0 0.00 0.00 0.00 10 1016.0
20260503003244 73 0 5.0 9.0 0.00 0.00 0.00 11 1016.0
20260503002744 73 0 4.0 9.0 0.00 0.00 0.00 11 1016.0
20260503002244 73 0 3.0 8.0 0.00 0.00 0.00 11 1016.1
20260503001744 73 0 3.0 7.0 0.00 0.00 0.00 10 1016.1
20260503001244 74 0 4.0 10.0 0.00 0.00 0.00 9 1016.1
20260503000743 74 0 4.0 10.0 0.00 0.00 0.00 11 1016.2
20260503000243 74 0 3.0 9.0 0.00 0.00 0.00 12 1016.2
20260502235742 74 0 3.0 6.0 0.00 0.00 0.00 12 1016.2
20260502235243 74 0 3.0 5.0 0.00 0.00 0.00 11 1016.4
20260502234741 74 0 4.0 7.0 0.00 0.00 0.00 11 1016.4
20260502234512 74 0 4.0 9.0 0.00 0.00 0.00 10 1016.4
20260502233741 74 0 2.0 9.0 0.00 0.00 0.00 12 1016.4
20260502233241 74 0 2.0 7.0 0.00 0.00 0.00 11 1016.2
20260502232741 74 0 2.0 7.0 0.00 0.00 0.00 11 1016.4
20260502232241 74 0 1.0 6.0 0.00 0.00 0.00 12 1016.5
20260502231742 73 0 1.0 6.0 0.00 0.00 0.00 13 1016.5
20260502231239 73 0 3.0 6.0 0.00 0.00 0.00 11 1016.5
20260502230742 74 0 3.0 7.0 0.00 0.00 0.00 12 1016.5
20260502230240 74 0 3.0 7.0 0.00 0.00 0.00 12 1016.6
20260502225739 74 0 3.0 7.0 0.00 0.00 0.00 10 1016.6
20260502225240 74 0 3.0 7.0 0.00 0.00 0.00 10 1016.6
20260502225008 74 0 4.0 9.0 0.00 0.00 0.00 12 1016.6
20260502224237 74 0 4.0 9.0 0.00 0.00 0.00 12 1016.6
20260502223736 74 0 3.0 12.0 0.00 0.00 0.00 13 1016.6
20260502223236 74 0 5.0 12.0 0.00 0.00 0.00 16 1016.7
20260502222735 74 0 6.0 12.0 0.00 0.00 0.00 13 1016.8
20260502222236 74 0 6.0 12.0 0.00 0.00 0.00 11 1016.8
20260502221734 75 0 6.0 11.0 0.00 0.00 0.00 14 1016.9
20260502221233 75 0 5.0 11.0 0.00 0.00 0.00 13 1017.1
20260502220734 75 0 4.0 10.0 0.00 0.00 0.00 15 1017.1
20260502220236 75 0 4.0 11.0 0.00 0.00 0.00 15 1017.1
20260502215734 74 0 4.0 11.0 0.00 0.00 0.00 14 1017.3
20260502215232 74 0 3.0 11.0 0.00 0.00 0.00 14 1017.3
20260502215005 73 0 5.0 15.0 0.00 0.00 0.00 16 1017.4
20260502214235 73 0 6.0 15.0 0.00 0.00 0.00 14 1017.5
20260502213733 74 0 7.0 15.0 0.00 0.00 0.00 14 1017.5
20260502213233 74 0 7.0 15.0 0.00 0.00 0.00 14 1017.6
20260502212733 74 0 5.0 10.0 0.00 0.00 0.00 17 1017.8
20260502212232 74 0 4.0 7.0 0.00 0.00 0.00 15 1017.9
20260502211734 74 0 5.0 11.0 0.00 0.00 0.00 14 1018.0
20260502211231 74 0 5.0 11.0 0.00 0.00 0.00 14 1018.0
20260502210731 73 0 4.0 10.0 0.00 0.00 0.00 18 1018.1
20260502210231 73 0 4.0 11.0 0.00 0.00 0.00 15 1018.2
20260502205732 73 0 5.0 11.0 0.00 0.00 0.00 15 1018.3
20260502205504 73 0 5.0 13.0 0.00 0.00 0.00 16 1018.4
20260502204730 73 0 3.0 13.0 0.00 0.00 0.00 15 1018.6
20260502204231 73 0 1.0 5.0 0.00 0.00 0.00 21 1018.6
20260502203732 72 0 2.0 6.0 0.00 0.00 0.00 17 1018.7
20260502203228 72 0 2.0 6.0 0.00 0.00 0.00 19 1018.8
20260502202729 72 0 3.0 8.0 0.00 0.00 0.00 16 1018.8
20260502202229 72 0 3.0 8.0 0.00 0.00 0.00 18 1018.8
20260502201729 72 0 2.0 6.0 0.00 0.00 0.00 17 1018.9
20260502201230 72 140 2.0 6.0 0.00 0.00 0.00 15 1019.0
20260502200728 72 0 3.0 7.0 0.00 0.00 0.00 18 1018.9
20260502200500 71 0 3.0 7.0 0.00 0.00 0.00 19 1019.0
20260502195725 72 0 4.0 9.0 0.00 0.00 0.00 15 1019.0
20260502195225 71 0 5.0 10.0 0.00 0.00 0.00 19 1019.1
20260502194729 71 0 2.0 5.0 0.00 0.00 0.00 22 1019.3
20260502194725 71 0 3.0 10.0 0.00 0.00 0.00 17 1019.3
20260502193726 70 0 2.0 4.0 0.00 0.00 0.00 20 1019.3
20260502193225 70 0 2.0 7.0 0.00 0.00 0.00 16 1019.4
20260502192725 70 0 3.0 7.0 0.00 0.00 0.00 21 1019.5
20260502192458 69 0 3.0 8.0 0.00 0.00 0.00 20 1019.5
20260502191725 69 0 5.0 8.0 0.00 0.00 0.00 21 1019.6
20260502191458 69 0 5.0 9.0 0.00 0.00 0.00 18 1019.6
20260502190958 70 0 5.0 9.0 0.00 0.00 0.00 18 1019.7
20260502190226 70 0 4.0 9.0 0.00 0.00 0.00 20 1019.8
20260502185724 70 0 4.0 11.0 0.00 0.00 0.00 23 1019.8
20260502185225 69 0 5.0 11.0 0.00 0.00 0.00 19 1020.1
20260502184725 69 0 5.0 10.0 0.00 0.00 0.00 19 1020.1
20260502184226 69 0 4.0 10.0 0.00 0.00 0.00 19 1020.2
20260502183724 69 0 3.0 8.0 0.00 0.00 0.00 21 1020.2
20260502183225 69 0 3.0 10.0 0.00 0.00 0.00 20 1020.3
20260502182727 68 0 3.0 10.0 0.00 0.00 0.00 20 1020.4
20260502182458 68 0 3.0 6.0 0.00 0.00 0.00 20 1020.4
20260502181726 67 0 5.0 10.0 0.00 0.00 0.00 21 1020.5
20260502181223 68 0 4.0 10.0 0.00 0.00 0.00 23 1020.6
20260502180723 68 0 4.0 8.0 0.00 0.00 0.00 23 1020.6
20260502180223 68 0 4.0 10.0 0.00 0.00 0.00 20 1020.6
20260502170452 65 0 2.0 7.0 0.00 0.00 0.00 29 1021.2
20260502164223 64 0 1.0 5.0 0.00 0.00 0.00 33 1021.4
20260502163720 63 0 1.0 5.0 0.00 0.00 0.00 29 1021.6
20260502163219 62 0 1.0 5.0 0.00 0.00 0.00 29 1021.6
20260502162720 62 0 1.0 4.0 0.00 0.00 0.00 34 1021.6
20260502162450 61 0 2.0 6.0 0.00 0.00 0.00 31 1021.7
20260502161719 61 0 2.0 6.0 0.00 0.00 0.00 29 1021.7
20260502161217 61 0 2.0 5.0 0.00 0.00 0.00 35 1021.8
20260502160717 60 152 3.0 6.0 0.00 0.00 0.00 31 1021.8
20260502160218 60 0 2.0 6.0 0.00 0.00 0.00 33 1021.8
20260502152208 55 0 2.0 5.0 0.00 0.00 0.00 40 1022.0
20260502151936 55 0 2.0 4.0 0.00 0.00 0.00 40 1022.0
20260502151204 53 0 2.0 5.0 0.00 0.00 0.00 43 1022.1
20260502150705 52 0 1.0 5.0 0.00 0.00 0.00 46 1022.3
20260502150202 51 0 1.0 4.0 0.00 0.00 0.00 45 1022.3
20260502130638 34 0 0.0 1.0 0.00 0.00 0.00 78 1022.5
20260502130137 34 0 0.0 1.0 0.00 0.00 0.00 78 1022.5
20260502123631 32 64 0.0 1.0 0.00 0.00 0.00 82 1022.3
20260502123129 31 0 0.0 1.0 0.00 0.00 0.00 82 1022.3
20260502122902 31 0 0.0 0.0 0.00 0.00 0.00 81 1022.1
20260502122130 31 0 0.0 0.0 0.00 0.00 0.00 79 1022.0
20260502121628 31 0 0.0 0.0 0.00 0.00 0.00 78 1022.3
20260502121127 31 0 0.0 0.0 0.00 0.00 0.00 78 1022.1
20260502120627 32 0 0.0 0.0 0.00 0.00 0.00 77 1022.0
20260502120127 32 0 0.0 0.0 0.00 0.00 0.00 78 1022.0
20260502115628 32 0 0.0 0.0 0.00 0.00 0.00 78 1022.0
20260502115359 32 0 0.0 0.0 0.00 0.00 0.00 77 1022.1
20260502115246 32 0 0.0 0.0 0.00 0.00 0.00 78 1022.1
20260502114127 32 0 0.0 0.0 0.00 0.00 0.00 77 1022.1
20260502113628 32 0 0.0 0.0 0.00 0.00 0.00 77 1022.0
20260502113129 33 0 0.0 0.0 0.00 0.00 0.00 76 1022.1
20260502112627 33 0 0.0 0.0 0.00 0.00 0.00 75 1022.1
20260502112129 33 0 0.0 0.0 0.00 0.00 0.00 74 1022.1
20260502111857 33 0 0.0 0.0 0.00 0.00 0.00 74 1022.3
20260502111127 33 0 0.0 0.0 0.00 0.00 0.00 72 1022.3
20260502110858 33 0 0.0 0.0 0.00 0.00 0.00 72 1022.4
20260502110127 33 0 0.0 0.0 0.00 0.00 0.00 72 1022.3
20260502105629 33 0 0.0 0.0 0.00 0.00 0.00 74 1022.3
20260502105128 34 0 0.0 0.0 0.00 0.00 0.00 74 1022.1
20260502104628 34 0 0.0 0.0 0.00 0.00 0.00 74 1022.1
20260502104128 34 0 0.0 0.0 0.00 0.00 0.00 72 1022.1
20260502103626 34 0 0.0 0.0 0.00 0.00 0.00 72 1022.1
20260502103127 34 0 0.0 0.0 0.00 0.00 0.00 73 1022.3
20260502102623 35 0 0.0 0.0 0.00 0.00 0.00 71 1022.1
20260502102126 35 0 0.0 0.0 0.00 0.00 0.00 73 1022.0
20260502101853 35 0 0.0 0.0 0.00 0.00 0.00 70 1022.1
20260502101122 35 0 0.0 0.0 0.00 0.00 0.00 68 1022.0
20260502100622 35 0 0.0 0.0 0.00 0.00 0.00 67 1022.0
20260502100122 35 0 0.0 0.0 0.00 0.00 0.00 70 1022.0
20260502091350 36 63 0.0 0.0 0.00 0.00 0.00 65 1021.8
20260502090619 36 63 0.0 0.0 0.00 0.00 0.00 65 1021.7
20260502090124 37 0 0.0 0.0 0.00 0.00 0.00 65 1021.7
20260502090119 37 67 0.0 0.0 0.00 0.00 0.00 66 1021.7
20260502071113 42 0 1.0 2.0 0.00 0.00 0.00 60 1021.7
20260502070611 42 0 1.0 2.0 0.00 0.00 0.00 61 1021.7
20260502070113 42 0 1.0 2.0 0.00 0.00 0.00 62 1021.7
20260502065612 41 0 1.0 2.0 0.00 0.00 0.00 63 1021.7
20260502065109 41 0 0.0 2.0 0.00 0.00 0.00 61 1021.7
20260502064610 41 11 0.0 0.0 0.00 0.00 0.00 61 1021.7
20260502064109 41 11 0.0 0.0 0.00 0.00 0.00 60 1021.7
20260502063610 42 11 0.0 0.0 0.00 0.00 0.00 61 1021.7
20260502063109 42 11 0.0 1.0 0.00 0.00 0.00 60 1021.6
20260502062610 42 11 0.0 2.0 0.00 0.00 0.00 59 1021.7
20260502062109 42 0 0.0 2.0 0.00 0.00 0.00 57 1021.7
20260502061609 42 15 0.0 2.0 0.00 0.00 0.00 57 1021.7
20260502061341 42 0 0.0 2.0 0.00 0.00 0.00 54 1021.7
20260502060608 42 0 0.0 2.0 0.00 0.00 0.00 53 1021.6
20260502060107 42 0 0.0 0.0 0.00 0.00 0.00 53 1021.6
20260502055607 42 0 0.0 0.0 0.00 0.00 0.00 54 1021.6
20260502055107 42 0 0.0 0.0 0.00 0.00 0.00 54 1021.6
20260502054608 42 0 0.0 1.0 0.00 0.00 0.00 53 1021.6
20260502054339 43 0 0.0 1.0 0.00 0.00 0.00 54 1021.6
20260502053839 43 0 0.0 1.0 0.00 0.00 0.00 51 1021.6
20260502053109 43 0 0.0 0.0 0.00 0.00 0.00 51 1021.6
20260502052608 44 0 0.0 1.0 0.00 0.00 0.00 51 1021.4
20260502052338 44 0 0.0 2.0 0.00 0.00 0.00 52 1021.4
20260502052226 44 0 0.0 2.0 0.00 0.00 0.00 47 1021.4
20260502051107 44 0 0.0 0.0 0.00 0.00 0.00 50 1021.4
20260502050606 45 0 0.0 0.0 0.00 0.00 0.00 48 1021.4
20260502050105 45 0 0.0 0.0 0.00 0.00 0.00 48 1021.3
20260502045606 45 0 0.0 0.0 0.00 0.00 0.00 53 1021.3
20260502045105 46 0 0.0 0.0 0.00 0.00 0.00 49 1021.3
20260502044605 46 0 0.0 0.0 0.00 0.00 0.00 49 1021.3
20260502044106 46 0 0.0 0.0 0.00 0.00 0.00 46 1021.3
20260502043604 47 0 0.0 0.0 0.00 0.00 0.00 46 1021.3
20260502043103 47 0 0.0 0.0 0.00 0.00 0.00 44 1021.3
20260502042605 47 0 0.0 2.0 0.00 0.00 0.00 41 1021.2
20260502042104 48 0 1.0 2.0 0.00 0.00 0.00 43 1021.2
20260502041604 48 0 1.0 2.0 0.00 0.00 0.00 42 1021.2
20260502041103 48 0 0.0 2.0 0.00 0.00 0.00 41 1021.1
20260502040604 49 0 0.0 2.0 0.00 0.00 0.00 38 1021.1
20260502035835 49 0 0.0 0.0 0.00 0.00 0.00 37 1020.9
20260502035103 50 0 0.0 0.0 0.00 0.00 0.00 38 1020.9
20260502034604 50 0 0.0 0.0 0.00 0.00 0.00 35 1020.8
20260502034101 51 0 0.0 3.0 0.00 0.00 0.00 36 1020.6
20260502033600 51 0 1.0 3.0 0.00 0.00 0.00 37 1020.6
20260502033102 51 0 1.0 3.0 0.00 0.00 0.00 33 1020.5
20260502032603 51 0 1.0 4.0 0.00 0.00 0.00 33 1020.4
20260502032101 51 0 1.0 4.0 0.00 0.00 0.00 33 1020.3
20260502031600 52 0 1.0 3.0 0.00 0.00 0.00 32 1020.3
20260502031332 52 0 1.0 3.0 0.00 0.00 0.00 31 1020.3
20260502030558 52 0 2.0 4.0 0.00 0.00 0.00 31 1020.2